START_TIME,STEP,MOV.,H8,t_acc.,H43,t_acc.,M25,t_acc.,H9,t_acc.
1981-08-25 12:00:30.470 ,2,0,0.,12.0,0.,12.0,0.,12.0,0.,12.0
1981-08-25 12:00:42.470 ,2,0,0.,12.0,0.,12.0,0.,12.0,0.,12.0
1981-08-25 12:00:54.470 ,3,0,0.,12.0,0.,12.0,0.,12.0,0.,12.0
1981-08-25 12:01:06.470 ,3,0,0.,12.0,0.,12.0,0.,12.0,0.,12.0
1981-08-25 12:01:18.470 ,3,0,0.,12.0,0.,12.0,0.,12.0,0.,12.0
1981-08-25 12:01:30.470 ,3,0,0.,12.0,0.,12.0,0.,12.0,0.,12.0
1981-08-25 12:01:42.470 ,4,0,0.,12.0,0.,12.0,0.,12.0,0.,12.0
1981-08-25 12:01:54.470 ,4,0,0.,12.0,0.,12.0,0.,12.0,0.,12.0
1981-08-25 12:02:06.470 ,4,0,0.,12.0,0.,12.0,0.,12.0,0.,12.0
1981-08-25 12:02:18.470 ,4,0,0.,12.0,0.,12.0,0.,12.0,0.,12.0
1981-08-25 12:02:30.470 ,5,0,0.,12.0,0.,12.0,0.,12.0,0.,12.0
1981-08-25 12:02:42.470 ,5,0,0.,12.0,0.,12.0,0.,12.0,0.,12.0
1981-08-25 12:02:54.470 ,5,0,0.,12.0,0.,12.0,0.,12.0,0.,12.0
1981-08-25 12:03:06.470 ,5,0,0.,12.0,0.,12.0,0.,12.0,0.,12.0
1981-08-25 12:03:18.470 ,6,0,0.,12.0,0.,12.0,0.,12.0,0.,12.0
1981-08-25 12:03:30.470 ,6,0,0.,12.0,0.,12.0,0.,12.0,0.,12.0
1981-08-25 12:03:42.470 ,6,0,0.,12.0,0.,12.0,0.,12.0,0.,12.0
1981-08-25 12:03:54.470 ,6,0,0.,12.0,0.,12.0,0.,12.0,0.,12.0
1981-08-25 12:04:06.470 ,7,0,0.,12.0,0.,12.0,0.,12.0,0.,12.0
1981-08-25 12:04:18.470 ,7,0,0.,12.0,0.,12.0,0.,12.0,0.,12.0
1981-08-25 12:04:30.470 ,7,0,0.,12.0,0.,12.0,0.,12.0,0.,12.0
1981-08-25 12:04:42.470 ,7,0,0.,12.0,0.,12.0,0.,12.0,0.,12.0
1981-08-25 12:04:54.470 ,7,0,0.,12.0,0.,12.0,0.,12.0,0.,12.0
1981-08-25 12:05:06.470 ,7,0,0.,12.0,0.,12.0,0.,12.0,0.,12.0
1981-08-25 12:05:18.470 ,7,0,0.,12.0,0.,12.0,0.,12.0,0.,12.0
1981-08-25 12:05:30.470 ,7,0,0.,12.0,0.,12.0,0.,12.0,0.,12.0
1981-08-25 12:05:42.470 ,6,0,0.,12.0,0.,12.0,0.,12.0,0.,12.0
1981-08-25 12:05:54.470 ,6,0,0.,12.0,0.,12.0,0.,12.0,0.,12.0
1981-08-25 12:06:06.470 ,6,0,0.,12.0,0.,12.0,0.,12.0,0.,12.0
1981-08-25 12:06:18.470 ,6,0,0.,12.0,0.,12.0,0.,12.0,0.,12.0
1981-08-25 12:06:30.470 ,5,0,0.,12.0,0.,12.0,0.,12.0,0.,12.0
1981-08-25 12:06:42.470 ,5,0,0.,12.0,0.,12.0,0.,12.0,0.,12.0
1981-08-25 12:06:54.470 ,5,0,0.,12.0,0.,12.0,0.,12.0,0.,12.0
1981-08-25 12:07:06.470 ,5,0,0.,12.0,0.,12.0,0.,12.0,0.,12.0
1981-08-25 12:07:18.470 ,4,0,0.,12.0,0.,12.0,0.,12.0,0.,12.0
1981-08-25 12:07:30.470 ,4,0,0.,12.0,0.,12.0,0.,12.0,0.,12.0
1981-08-25 12:07:42.470 ,4,0,0.,12.0,0.,12.0,0.,12.0,0.,12.0
1981-08-25 12:07:54.470 ,4,0,0.,12.0,0.,12.0,0.,12.0,0.,12.0
1981-08-25 12:08:06.470 ,3,0,0.,12.0,0.,12.0,0.,12.0,0.,12.0
1981-08-25 12:08:18.470 ,3,0,0.,12.0,0.,12.0,0.,12.0,0.,12.0
1981-08-25 12:08:30.470 ,3,0,0.,12.0,0.,12.0,0.,12.0,0.,12.0
1981-08-25 12:08:42.470 ,3,0,0.,12.0,0.,12.0,0.,12.0,0.,12.0
1981-08-25 12:08:54.470 ,2,0,0.,12.0,0.,12.0,0.,12.0,0.,12.0
1981-08-25 12:09:06.470 ,2,0,0.,12.0,0.,12.0,0.,12.0,0.,12.0
1981-08-25 12:09:18.470 ,2,0,0.,12.0,0.,12.0,0.,12.0,0.,12.0
1981-08-25 12:09:30.470 ,2,0,0.,12.0,0.,12.0,0.,12.0,0.,12.0
1981-08-25 12:09:42.470 ,1,0,0.,12.0,0.,12.0,0.,12.0,0.,12.0
1981-08-25 12:09:54.470 ,1,0,0.,12.0,0.,12.0,0.,12.0,0.,12.0
1981-08-25 12:10:06.470 ,1,0,0.,12.0,0.,12.0,0.,12.0,0.,12.0
1981-08-25 12:10:18.470 ,1,0,0.,12.0,0.,12.0,0.,12.0,0.,12.0
1981-08-25 12:10:30.470 ,0,0,0.,12.0,0.,12.0,0.,12.0,0.,12.0
1981-08-25 12:10:42.470 ,0,0,0.,12.0,0.,12.0,0.,12.0,0.,12.0
1981-08-25 12:10:54.470 ,0,0,0.,12.0,0.,12.0,0.,12.0,0.,12.0
1981-08-25 12:11:06.470 ,0,0,0.,12.0,0.,12.0,0.,12.0,0.,12.0
1981-08-25 12:11:18.470 ,0,0,0.,12.0,0.,12.0,0.,12.0,0.,12.0
1981-08-25 12:11:30.470 ,0,0,0.,12.0,0.,12.0,0.,12.0,0.,12.0
1981-08-25 12:11:42.470 ,0,0,0.,12.0,0.,12.0,0.,12.0,0.,12.0
1981-08-25 12:11:54.470 ,0,0,0.,12.0,0.,12.0,0.,12.0,0.,12.0
1981-08-25 12:12:06.470 ,1,0,0.,12.0,0.,12.0,0.,12.0,0.,12.0
1981-08-25 12:12:18.470 ,1,0,0.,12.0,0.,12.0,0.,12.0,0.,12.0
1981-08-25 12:12:30.470 ,1,0,0.,12.0,0.,12.0,0.,12.0,0.,12.0
1981-08-25 12:12:42.470 ,1,0,1.,12.0,0.,12.0,0.,12.0,0.,12.0
1981-08-25 12:12:54.470 ,2,0,0.,12.0,0.,12.0,0.,12.0,0.,12.0
1981-08-25 12:13:06.470 ,2,0,0.,12.0,0.,12.0,0.,12.0,0.,12.0
1981-08-25 12:13:18.470 ,2,0,0.,12.0,0.,12.0,0.,12.0,0.,12.0
1981-08-25 12:13:30.470 ,2,0,0.,12.0,0.,12.0,0.,12.0,0.,12.0
1981-08-25 12:13:42.470 ,3,0,0.,12.0,0.,12.0,0.,12.0,0.,12.0
1981-08-25 12:13:54.470 ,3,0,0.,12.0,0.,12.0,0.,12.0,0.,12.0
1981-08-25 12:14:06.470 ,3,0,0.,12.0,0.,12.0,0.,12.0,0.,12.0
1981-08-25 12:14:18.470 ,3,0,0.,12.0,0.,12.0,0.,12.0,0.,12.0
1981-08-25 12:14:30.470 ,4,0,0.,12.0,0.,12.0,0.,12.0,0.,12.0
1981-08-25 12:14:42.470 ,4,0,0.,12.0,0.,12.0,0.,12.0,0.,12.0
1981-08-25 12:14:54.470 ,4,0,0.,12.0,0.,12.0,0.,12.0,0.,12.0
1981-08-25 12:15:06.470 ,4,0,0.,12.0,0.,12.0,0.,12.0,0.,12.0
1981-08-25 12:15:18.470 ,5,0,0.,12.0,0.,12.0,0.,12.0,0.,12.0
1981-08-25 12:15:30.470 ,5,0,0.,12.0,0.,12.0,0.,12.0,0.,12.0
1981-08-25 12:15:42.470 ,5,0,0.,12.0,0.,12.0,0.,12.0,0.,12.0
1981-08-25 12:15:54.470 ,5,0,0.,12.0,0.,12.0,0.,12.0,0.,12.0
1981-08-25 12:16:06.470 ,6,0,0.,12.0,0.,12.0,0.,12.0,0.,12.0
1981-08-25 12:16:18.470 ,6,0,0.,12.0,0.,12.0,0.,12.0,0.,12.0
1981-08-25 12:16:30.470 ,6,0,0.,12.0,0.,12.0,0.,12.0,0.,12.0
1981-08-25 12:16:42.470 ,6,0,0.,12.0,0.,12.0,0.,12.0,0.,12.0
1981-08-25 12:16:54.470 ,7,0,0.,12.0,0.,12.0,0.,12.0,0.,12.0
1981-08-25 12:17:06.470 ,7,0,0.,12.0,0.,12.0,0.,12.0,0.,12.0
1981-08-25 12:17:18.470 ,7,0,0.,12.0,0.,12.0,0.,12.0,0.,12.0
1981-08-25 12:17:30.470 ,7,0,0.,12.0,0.,12.0,0.,12.0,0.,12.0
1981-08-25 12:17:42.470 ,7,0,0.,12.0,0.,12.0,0.,12.0,0.,12.0
1981-08-25 12:17:54.470 ,7,0,0.,12.0,0.,12.0,0.,12.0,0.,12.0
1981-08-25 12:18:06.470 ,7,0,0.,12.0,0.,12.0,0.,12.0,0.,12.0
1981-08-25 12:18:18.470 ,7,0,0.,12.0,0.,12.0,0.,12.0,0.,12.0
1981-08-25 12:18:30.470 ,6,0,0.,12.0,0.,12.0,0.,12.0,0.,12.0
1981-08-25 12:18:42.470 ,6,0,0.,12.0,0.,12.0,0.,12.0,0.,12.0
1981-08-25 12:18:54.470 ,6,0,0.,12.0,0.,12.0,0.,12.0,0.,12.0
1981-08-25 12:19:06.470 ,6,0,0.,12.0,0.,12.0,0.,12.0,0.,12.0
1981-08-25 12:19:18.470 ,5,0,0.,12.0,0.,12.0,0.,12.0,0.,12.0
1981-08-25 12:19:30.470 ,5,0,0.,12.0,0.,12.0,0.,12.0,0.,12.0
1981-08-25 12:19:42.470 ,5,0,0.,12.0,0.,12.0,0.,12.0,0.,12.0
1981-08-25 12:19:54.470 ,5,0,0.,12.0,0.,12.0,0.,12.0,0.,12.0
1981-08-25 12:20:06.470 ,4,0,0.,12.0,0.,12.0,0.,12.0,0.,12.0
1981-08-25 12:20:18.470 ,4,0,0.,12.0,0.,12.0,0.,12.0,0.,12.0
1981-08-25 12:20:30.470 ,4,0,0.,12.0,0.,12.0,0.,12.0,0.,12.0
1981-08-25 12:20:42.470 ,4,0,0.,12.0,0.,12.0,0.,12.0,0.,12.0
1981-08-25 12:20:54.470 ,3,0,0.,12.0,0.,12.0,0.,12.0,0.,12.0
1981-08-25 12:21:06.470 ,3,0,0.,12.0,0.,12.0,0.,12.0,0.,12.0
1981-08-25 12:21:18.470 ,3,0,0.,12.0,0.,12.0,0.,12.0,0.,12.0
1981-08-25 12:21:30.470 ,3,0,0.,12.0,0.,12.0,0.,12.0,0.,12.0
1981-08-25 12:21:42.470 ,2,0,0.,12.0,0.,12.0,0.,12.0,0.,12.0
1981-08-25 12:21:54.470 ,2,0,0.,12.0,0.,12.0,0.,12.0,0.,12.0
1981-08-25 12:22:06.470 ,2,0,0.,12.0,0.,12.0,0.,12.0,0.,12.0
1981-08-25 12:22:18.470 ,2,0,0.,12.0,0.,12.0,0.,12.0,0.,12.0
1981-08-25 12:22:30.470 ,1,0,0.,12.0,0.,12.0,0.,12.0,0.,12.0
1981-08-25 12:22:42.470 ,1,0,0.,12.0,0.,12.0,0.,12.0,0.,12.0
1981-08-25 12:22:54.470 ,1,0,0.,12.0,0.,12.0,0.,12.0,0.,12.0
1981-08-25 12:23:06.470 ,1,0,0.,12.0,0.,12.0,0.,12.0,0.,12.0
1981-08-25 12:23:18.470 ,0,0,0.,12.0,0.,12.0,0.,12.0,0.,12.0
1981-08-25 12:23:30.470 ,0,0,0.,12.0,0.,12.0,0.,12.0,0.,12.0
1981-08-25 12:23:42.470 ,0,0,0.,12.0,0.,12.0,0.,12.0,0.,12.0
1981-08-25 12:23:54.470 ,0,0,0.,12.0,0.,12.0,0.,12.0,0.,12.0
1981-08-25 12:24:06.470 ,0,0,0.,12.0,0.,12.0,0.,12.0,0.,12.0
1981-08-25 12:24:18.470 ,0,0,0.,12.0,0.,12.0,0.,12.0,0.,12.0
1981-08-25 12:24:30.470 ,0,0,0.,12.0,0.,12.0,0.,12.0,0.,12.0
1981-08-25 12:24:42.470 ,0,0,0.,12.0,0.,12.0,0.,12.0,0.,12.0
1981-08-25 12:24:54.470 ,1,0,0.,12.0,0.,12.0,0.,12.0,0.,12.0
1981-08-25 12:25:06.470 ,1,0,0.,12.0,0.,12.0,0.,12.0,0.,12.0
1981-08-25 12:25:18.470 ,1,0,0.,12.0,0.,12.0,0.,12.0,0.,12.0
1981-08-25 12:25:30.470 ,1,0,0.,12.0,0.,12.0,0.,12.0,0.,12.0
1981-08-25 12:25:42.470 ,2,0,0.,12.0,0.,12.0,0.,12.0,0.,12.0
1981-08-25 12:25:54.470 ,2,0,0.,12.0,0.,12.0,0.,12.0,0.,12.0
1981-08-25 12:26:06.470 ,2,0,0.,12.0,0.,12.0,0.,12.0,0.,12.0
1981-08-25 12:26:18.470 ,2,0,0.,12.0,0.,12.0,0.,12.0,0.,12.0
1981-08-25 12:26:30.470 ,3,0,0.,12.0,0.,12.0,0.,12.0,0.,12.0
1981-08-25 12:26:42.470 ,3,0,0.,12.0,0.,12.0,0.,12.0,0.,12.0
1981-08-25 12:26:54.470 ,3,0,0.,12.0,0.,12.0,0.,12.0,0.,12.0
1981-08-25 12:27:06.470 ,3,0,0.,12.0,0.,12.0,0.,12.0,0.,12.0
1981-08-25 12:27:18.470 ,4,0,0.,12.0,0.,12.0,0.,12.0,0.,12.0
1981-08-25 12:27:30.470 ,4,0,0.,12.0,0.,12.0,0.,12.0,0.,12.0
1981-08-25 12:27:42.470 ,4,0,0.,12.0,0.,12.0,0.,12.0,0.,12.0
1981-08-25 12:27:54.470 ,4,0,0.,12.0,0.,12.0,0.,12.0,0.,12.0
1981-08-25 12:28:06.470 ,5,0,0.,12.0,0.,12.0,0.,12.0,0.,12.0
1981-08-25 12:28:18.470 ,5,0,0.,12.0,0.,12.0,0.,12.0,0.,12.0
1981-08-25 12:28:30.470 ,5,0,0.,12.0,0.,12.0,0.,12.0,0.,12.0
1981-08-25 12:28:42.470 ,5,0,0.,12.0,0.,12.0,0.,12.0,0.,12.0
1981-08-25 12:28:54.470 ,6,0,0.,12.0,0.,12.0,0.,12.0,0.,12.0
1981-08-25 12:29:06.470 ,6,0,0.,12.0,0.,12.0,0.,12.0,0.,12.0
1981-08-25 12:29:18.470 ,6,0,0.,12.0,0.,12.0,0.,12.0,0.,12.0
1981-08-25 12:29:30.470 ,6,0,0.,12.0,0.,12.0,0.,12.0,0.,12.0
1981-08-25 12:29:42.470 ,7,0,0.,12.0,0.,12.0,0.,12.0,0.,12.0
1981-08-25 12:29:54.470 ,7,0,0.,12.0,0.,12.0,0.,12.0,0.,12.0
1981-08-25 12:30:06.470 ,7,0,0.,12.0,0.,12.0,0.,12.0,0.,12.0
1981-08-25 12:30:18.470 ,7,0,0.,12.0,0.,12.0,0.,12.0,0.,12.0
1981-08-25 12:30:30.470 ,7,0,0.,12.0,0.,12.0,0.,12.0,0.,12.0
1981-08-25 12:30:42.470 ,7,0,0.,12.0,0.,12.0,0.,12.0,0.,12.0
1981-08-25 12:30:54.470 ,7,0,0.,12.0,0.,12.0,0.,12.0,0.,12.0
1981-08-25 12:31:06.470 ,7,0,0.,12.0,0.,12.0,0.,12.0,0.,12.0
1981-08-25 12:31:18.470 ,6,0,0.,12.0,0.,12.0,0.,12.0,0.,12.0
1981-08-25 12:31:30.470 ,6,0,0.,12.0,0.,12.0,0.,12.0,0.,12.0
1981-08-25 12:31:42.470 ,6,0,0.,12.0,0.,12.0,0.,12.0,0.,12.0
1981-08-25 12:31:54.470 ,6,0,0.,12.0,0.,12.0,0.,12.0,0.,12.0
1981-08-25 12:32:06.470 ,5,0,0.,12.0,0.,12.0,0.,12.0,0.,12.0
1981-08-25 12:32:18.470 ,5,0,0.,12.0,0.,12.0,0.,12.0,0.,12.0
1981-08-25 12:32:30.470 ,5,0,0.,12.0,0.,12.0,0.,12.0,0.,12.0
1981-08-25 12:32:42.470 ,5,0,0.,12.0,0.,12.0,0.,12.0,0.,12.0
1981-08-25 12:32:54.470 ,4,0,0.,12.0,0.,12.0,0.,12.0,0.,12.0
1981-08-25 12:33:06.470 ,4,0,0.,12.0,0.,12.0,0.,12.0,0.,12.0
1981-08-25 12:33:18.470 ,4,0,0.,12.0,0.,12.0,0.,12.0,0.,12.0
1981-08-25 12:33:30.470 ,4,0,0.,12.0,0.,12.0,0.,12.0,0.,12.0
1981-08-25 12:33:42.470 ,3,0,0.,12.0,0.,12.0,0.,12.0,0.,12.0
1981-08-25 12:33:54.470 ,3,0,0.,12.0,0.,12.0,0.,12.0,0.,12.0
1981-08-25 12:34:06.470 ,3,0,0.,12.0,0.,12.0,0.,12.0,0.,12.0
1981-08-25 12:34:18.470 ,3,0,0.,12.0,0.,12.0,0.,12.0,0.,12.0
1981-08-25 12:34:30.470 ,2,0,0.,12.0,0.,12.0,0.,12.0,0.,12.0
1981-08-25 12:34:42.470 ,2,0,0.,12.0,0.,12.0,0.,12.0,0.,12.0
1981-08-25 12:34:54.470 ,2,0,0.,12.0,0.,12.0,0.,12.0,0.,12.0
1981-08-25 12:35:06.470 ,2,0,0.,12.0,0.,12.0,0.,12.0,0.,12.0
1981-08-25 12:35:18.470 ,1,0,0.,12.0,0.,12.0,0.,12.0,0.,12.0
1981-08-25 12:35:30.470 ,1,0,0.,12.0,0.,12.0,0.,12.0,0.,12.0
1981-08-25 12:35:42.470 ,1,0,0.,12.0,0.,12.0,0.,12.0,0.,12.0
1981-08-25 12:35:54.470 ,1,0,0.,12.0,0.,12.0,0.,12.0,0.,12.0
1981-08-25 12:36:06.470 ,0,0,0.,12.0,0.,12.0,0.,12.0,0.,12.0
1981-08-25 12:36:18.470 ,0,0,0.,12.0,0.,12.0,0.,12.0,0.,12.0
1981-08-25 12:36:30.470 ,0,0,0.,12.0,0.,12.0,0.,12.0,0.,12.0
1981-08-25 12:36:42.470 ,0,0,0.,12.0,0.,12.0,0.,12.0,0.,12.0
1981-08-25 12:36:54.470 ,0,0,0.,12.0,0.,12.0,0.,12.0,0.,12.0
1981-08-25 12:37:06.470 ,0,0,0.,12.0,0.,12.0,0.,12.0,0.,12.0
1981-08-25 12:37:18.470 ,0,0,0.,12.0,0.,12.0,0.,12.0,0.,12.0
1981-08-25 12:37:30.470 ,0,0,0.,12.0,0.,12.0,0.,12.0,0.,12.0
1981-08-25 12:37:42.470 ,1,0,0.,12.0,0.,12.0,0.,12.0,0.,12.0
1981-08-25 12:37:54.470 ,1,0,0.,12.0,0.,12.0,0.,12.0,0.,12.0
1981-08-25 12:38:06.470 ,1,0,0.,12.0,0.,12.0,0.,12.0,0.,12.0
1981-08-25 12:38:18.470 ,1,0,0.,12.0,0.,12.0,0.,12.0,0.,12.0
1981-08-25 12:38:30.470 ,2,0,0.,12.0,0.,12.0,0.,12.0,0.,12.0
1981-08-25 12:38:42.470 ,2,0,0.,12.0,0.,12.0,0.,12.0,0.,12.0
1981-08-25 12:38:54.470 ,2,0,0.,12.0,0.,12.0,0.,12.0,0.,12.0
1981-08-25 12:39:06.470 ,2,0,0.,12.0,0.,12.0,0.,12.0,0.,12.0
1981-08-25 12:39:18.470 ,3,0,0.,12.0,0.,12.0,0.,12.0,0.,12.0
1981-08-25 12:39:30.470 ,3,0,0.,12.0,0.,12.0,0.,12.0,0.,12.0
1981-08-25 12:39:42.470 ,3,0,0.,12.0,0.,12.0,0.,12.0,0.,12.0
1981-08-25 12:39:54.470 ,3,0,0.,12.0,0.,12.0,0.,12.0,0.,12.0
1981-08-25 12:40:06.470 ,4,0,0.,12.0,0.,12.0,0.,12.0,0.,12.0
1981-08-25 12:40:18.470 ,4,0,0.,12.0,0.,12.0,0.,12.0,0.,12.0
1981-08-25 12:40:30.470 ,4,0,0.,12.0,0.,12.0,0.,12.0,0.,12.0
1981-08-25 12:40:42.470 ,4,0,0.,12.0,0.,12.0,0.,12.0,0.,12.0
1981-08-25 12:40:54.470 ,5,0,0.,12.0,0.,12.0,0.,12.0,0.,12.0
1981-08-25 12:41:06.470 ,5,0,0.,12.0,0.,12.0,0.,12.0,0.,12.0
1981-08-25 12:41:18.470 ,5,0,0.,12.0,0.,12.0,0.,12.0,0.,12.0
1981-08-25 12:41:30.470 ,5,0,0.,12.0,0.,12.0,0.,12.0,0.,12.0
1981-08-25 12:41:42.470 ,6,0,0.,12.0,0.,12.0,0.,12.0,0.,12.0
1981-08-25 12:41:54.470 ,6,0,0.,12.0,0.,12.0,0.,12.0,0.,12.0
1981-08-25 12:42:06.470 ,6,0,0.,12.0,0.,12.0,0.,12.0,0.,12.0
1981-08-25 12:42:18.470 ,6,0,0.,12.0,0.,12.0,0.,12.0,0.,12.0
1981-08-25 12:42:30.470 ,7,0,0.,12.0,0.,12.0,0.,12.0,0.,12.0
1981-08-25 12:42:42.470 ,7,0,0.,12.0,0.,12.0,0.,12.0,0.,12.0
1981-08-25 12:42:54.470 ,7,0,0.,12.0,0.,12.0,0.,12.0,0.,12.0
1981-08-25 12:43:06.470 ,7,0,0.,12.0,0.,12.0,0.,12.0,0.,12.0
1981-08-25 12:43:18.470 ,7,0,0.,12.0,0.,12.0,0.,12.0,0.,12.0
1981-08-25 12:43:30.470 ,7,0,0.,12.0,0.,12.0,0.,12.0,0.,12.0
1981-08-25 12:43:42.470 ,7,0,0.,12.0,0.,12.0,0.,12.0,0.,12.0
1981-08-25 12:43:54.470 ,7,0,0.,12.0,0.,12.0,0.,12.0,0.,12.0
1981-08-25 12:44:06.470 ,6,0,0.,12.0,0.,12.0,0.,12.0,0.,12.0
1981-08-25 12:44:18.470 ,6,0,0.,12.0,0.,12.0,0.,12.0,0.,12.0
1981-08-25 12:44:30.470 ,6,0,0.,12.0,0.,12.0,0.,12.0,0.,12.0
1981-08-25 12:44:42.470 ,6,0,0.,12.0,0.,12.0,0.,12.0,0.,12.0
1981-08-25 12:44:54.470 ,5,0,0.,12.0,0.,12.0,0.,12.0,0.,12.0
1981-08-25 12:45:06.470 ,5,0,0.,12.0,0.,12.0,0.,12.0,0.,12.0
1981-08-25 12:45:18.470 ,5,0,0.,12.0,0.,12.0,0.,12.0,0.,12.0
1981-08-25 12:45:30.470 ,5,0,0.,12.0,0.,12.0,0.,12.0,0.,12.0
1981-08-25 12:45:42.470 ,4,0,0.,12.0,0.,12.0,0.,12.0,0.,12.0
1981-08-25 12:45:54.470 ,4,0,0.,12.0,0.,12.0,0.,12.0,0.,12.0
1981-08-25 12:46:06.470 ,4,0,0.,12.0,0.,12.0,0.,12.0,0.,12.0
1981-08-25 12:46:18.470 ,4,0,0.,12.0,0.,12.0,0.,12.0,0.,12.0
1981-08-25 12:46:30.470 ,3,0,0.,12.0,0.,12.0,0.,12.0,0.,12.0
1981-08-25 12:46:42.470 ,3,0,0.,12.0,0.,12.0,0.,12.0,0.,12.0
1981-08-25 12:46:54.470 ,3,0,0.,12.0,0.,12.0,0.,12.0,0.,12.0
1981-08-25 12:47:06.470 ,3,0,0.,12.0,0.,12.0,0.,12.0,0.,12.0
1981-08-25 12:47:18.470 ,2,0,0.,12.0,0.,12.0,0.,12.0,0.,12.0
1981-08-25 12:47:30.470 ,2,0,0.,12.0,0.,12.0,0.,12.0,0.,12.0
1981-08-25 12:47:42.470 ,2,0,0.,12.0,0.,12.0,0.,12.0,0.,12.0
1981-08-25 12:47:54.470 ,2,0,0.,12.0,0.,12.0,0.,12.0,0.,12.0
1981-08-25 12:48:06.470 ,1,0,0.,12.0,0.,12.0,0.,12.0,0.,12.0
1981-08-25 12:48:18.470 ,1,0,0.,12.0,0.,12.0,0.,12.0,0.,12.0
1981-08-25 12:48:30.470 ,1,0,0.,12.0,0.,12.0,0.,12.0,0.,12.0
1981-08-25 12:48:42.470 ,1,0,0.,12.0,0.,12.0,0.,12.0,0.,12.0
1981-08-25 12:48:54.470 ,0,0,0.,12.0,0.,12.0,0.,12.0,0.,12.0
1981-08-25 12:49:06.470 ,0,0,0.,12.0,0.,12.0,0.,12.0,0.,12.0
1981-08-25 12:49:18.470 ,0,0,0.,12.0,0.,12.0,0.,12.0,0.,12.0
1981-08-25 12:49:30.470 ,0,0,0.,12.0,0.,12.0,0.,12.0,0.,12.0
1981-08-25 12:49:42.470 ,0,0,0.,12.0,0.,12.0,0.,12.0,0.,12.0
1981-08-25 12:49:54.470 ,0,0,0.,12.0,0.,12.0,0.,12.0,0.,12.0
1981-08-25 12:50:06.470 ,0,0,0.,12.0,0.,12.0,0.,12.0,0.,12.0
1981-08-25 12:50:18.470 ,0,0,0.,12.0,0.,12.0,0.,12.0,0.,12.0
1981-08-25 12:50:30.470 ,1,0,0.,12.0,0.,12.0,0.,12.0,0.,12.0
1981-08-25 12:50:42.470 ,1,0,0.,12.0,0.,12.0,0.,12.0,0.,12.0
1981-08-25 12:50:54.470 ,1,0,0.,12.0,0.,12.0,0.,12.0,0.,12.0
1981-08-25 12:51:06.470 ,1,0,0.,12.0,0.,12.0,0.,12.0,0.,12.0
1981-08-25 12:51:18.470 ,2,0,0.,12.0,0.,12.0,0.,12.0,0.,12.0
1981-08-25 12:51:30.470 ,2,0,0.,12.0,0.,12.0,0.,12.0,0.,12.0
1981-08-25 12:51:42.470 ,2,0,0.,12.0,0.,12.0,0.,12.0,0.,12.0
1981-08-25 12:51:54.470 ,2,0,0.,12.0,0.,12.0,0.,12.0,0.,12.0
1981-08-25 12:52:06.470 ,3,0,0.,12.0,0.,12.0,0.,12.0,0.,12.0
1981-08-25 12:52:18.470 ,3,0,0.,12.0,0.,12.0,0.,12.0,0.,12.0
1981-08-25 12:52:30.470 ,3,0,0.,12.0,0.,12.0,0.,12.0,0.,12.0
1981-08-25 12:52:42.470 ,3,0,0.,12.0,0.,12.0,0.,12.0,0.,12.0
1981-08-25 12:52:54.470 ,4,0,0.,12.0,0.,12.0,0.,12.0,0.,12.0
1981-08-25 12:53:06.470 ,4,0,0.,12.0,0.,12.0,0.,12.0,0.,12.0
1981-08-25 12:53:18.470 ,4,0,0.,12.0,0.,12.0,0.,12.0,0.,12.0
1981-08-25 12:53:30.470 ,4,0,0.,12.0,0.,12.0,0.,12.0,0.,12.0
1981-08-25 12:53:42.460 ,5,0,0.,12.0,0.,12.0,0.,12.0,0.,12.0
1981-08-25 12:53:54.460 ,5,0,0.,12.0,0.,12.0,0.,12.0,0.,12.0
1981-08-25 12:54:06.460 ,5,0,0.,12.0,0.,12.0,0.,12.0,0.,12.0
1981-08-25 12:54:18.460 ,5,0,0.,12.0,0.,12.0,0.,12.0,0.,12.0
1981-08-25 12:54:30.460 ,6,0,0.,12.0,0.,12.0,0.,12.0,0.,12.0
1981-08-25 12:54:42.460 ,6,0,0.,12.0,0.,12.0,0.,12.0,0.,12.0
1981-08-25 12:54:54.460 ,6,0,0.,12.0,0.,12.0,0.,12.0,0.,12.0
1981-08-25 12:55:06.460 ,6,0,0.,12.0,0.,12.0,0.,12.0,0.,12.0
1981-08-25 12:55:18.460 ,7,0,0.,12.0,0.,12.0,0.,12.0,0.,12.0
1981-08-25 12:55:30.460 ,7,0,0.,12.0,0.,12.0,0.,12.0,0.,12.0
1981-08-25 12:55:42.460 ,7,0,0.,12.0,0.,12.0,0.,12.0,0.,12.0
1981-08-25 12:55:54.460 ,7,0,0.,12.0,0.,12.0,0.,12.0,0.,12.0
1981-08-25 12:56:06.460 ,7,0,0.,12.0,0.,12.0,0.,12.0,0.,12.0
1981-08-25 12:56:18.460 ,7,0,0.,12.0,0.,12.0,0.,12.0,0.,12.0
1981-08-25 12:56:30.460 ,7,0,0.,12.0,0.,12.0,0.,12.0,0.,12.0
1981-08-25 12:56:42.460 ,7,0,0.,12.0,0.,12.0,0.,12.0,0.,12.0
1981-08-25 12:56:54.460 ,6,0,0.,12.0,0.,12.0,0.,12.0,0.,12.0
1981-08-25 12:57:06.460 ,6,0,0.,12.0,0.,12.0,0.,12.0,0.,12.0
1981-08-25 12:57:18.460 ,6,0,0.,12.0,0.,12.0,0.,12.0,0.,12.0
1981-08-25 12:57:30.460 ,6,0,0.,12.0,0.,12.0,0.,12.0,0.,12.0
1981-08-25 12:57:42.460 ,5,0,0.,12.0,0.,12.0,0.,12.0,0.,12.0
1981-08-25 12:57:54.460 ,5,0,0.,12.0,0.,12.0,0.,12.0,0.,12.0
1981-08-25 12:58:06.460 ,5,0,0.,12.0,0.,12.0,0.,12.0,0.,12.0
1981-08-25 12:58:18.460 ,5,0,0.,12.0,0.,12.0,0.,12.0,0.,12.0
1981-08-25 12:58:30.460 ,4,0,0.,12.0,0.,12.0,0.,12.0,0.,12.0
1981-08-25 12:58:42.460 ,4,0,0.,12.0,0.,12.0,0.,12.0,0.,12.0
1981-08-25 12:58:54.460 ,4,0,0.,12.0,0.,12.0,0.,12.0,0.,12.0
1981-08-25 12:59:06.460 ,4,0,0.,12.0,0.,12.0,0.,12.0,0.,12.0
1981-08-25 12:59:18.460 ,3,0,0.,12.0,0.,12.0,0.,12.0,0.,12.0
1981-08-25 12:59:30.460 ,3,0,0.,12.0,0.,12.0,0.,12.0,0.,12.0
1981-08-25 12:59:42.460 ,3,0,0.,12.0,0.,12.0,0.,12.0,0.,12.0
1981-08-25 12:59:54.460 ,3,0,0.,12.0,0.,12.0,0.,12.0,0.,12.0
1981-08-25 13:00:06.460 ,2,0,0.,12.0,0.,12.0,0.,12.0,0.,12.0
1981-08-25 13:00:18.460 ,2,0,0.,12.0,0.,12.0,0.,12.0,0.,12.0
1981-08-25 13:00:30.460 ,2,0,0.,12.0,0.,12.0,0.,12.0,0.,12.0
1981-08-25 13:00:42.460 ,2,0,0.,12.0,0.,12.0,0.,12.0,0.,12.0
1981-08-25 13:00:54.460 ,1,0,0.,12.0,0.,12.0,0.,12.0,0.,12.0
1981-08-25 13:01:06.460 ,1,0,0.,12.0,0.,12.0,0.,12.0,0.,12.0
1981-08-25 13:01:18.460 ,1,0,0.,12.0,0.,12.0,0.,12.0,0.,12.0
1981-08-25 13:01:30.460 ,1,0,0.,12.0,0.,12.0,0.,12.0,0.,12.0
1981-08-25 13:01:42.460 ,0,0,0.,12.0,0.,12.0,0.,12.0,0.,12.0
1981-08-25 13:01:54.460 ,0,0,0.,12.0,0.,12.0,0.,12.0,0.,12.0
1981-08-25 13:02:06.460 ,0,0,0.,12.0,0.,12.0,0.,12.0,0.,12.0
1981-08-25 13:02:18.460 ,0,0,0.,12.0,0.,12.0,0.,12.0,0.,12.0
1981-08-25 13:02:30.460 ,0,0,0.,12.0,0.,12.0,0.,12.0,0.,12.0
1981-08-25 13:02:42.460 ,0,0,0.,12.0,0.,12.0,0.,12.0,0.,12.0
1981-08-25 13:02:54.460 ,0,0,0.,12.0,0.,12.0,0.,12.0,0.,12.0
1981-08-25 13:03:06.460 ,0,0,0.,12.0,0.,12.0,0.,12.0,0.,12.0
1981-08-25 13:03:18.460 ,1,0,0.,12.0,0.,12.0,0.,12.0,0.,12.0
1981-08-25 13:03:30.460 ,1,0,0.,12.0,0.,12.0,0.,12.0,0.,12.0
1981-08-25 13:03:42.460 ,1,0,0.,12.0,0.,12.0,0.,12.0,0.,12.0
1981-08-25 13:03:54.460 ,1,0,0.,12.0,0.,12.0,0.,12.0,0.,12.0
1981-08-25 13:04:06.460 ,2,0,0.,12.0,0.,12.0,0.,12.0,0.,12.0
1981-08-25 13:04:18.460 ,2,0,0.,12.0,0.,12.0,0.,12.0,0.,12.0
1981-08-25 13:04:30.460 ,2,0,0.,12.0,0.,12.0,0.,12.0,0.,12.0
1981-08-25 13:04:42.460 ,2,0,0.,12.0,0.,12.0,0.,12.0,0.,12.0
1981-08-25 13:04:54.460 ,3,0,0.,12.0,0.,12.0,0.,12.0,0.,12.0
1981-08-25 13:05:06.460 ,3,0,0.,12.0,0.,12.0,0.,12.0,0.,12.0
1981-08-25 13:05:18.460 ,3,0,0.,12.0,0.,12.0,0.,12.0,0.,12.0
1981-08-25 13:05:30.460 ,3,0,0.,12.0,0.,12.0,0.,12.0,0.,12.0
1981-08-25 13:05:42.460 ,4,0,0.,12.0,0.,12.0,0.,12.0,0.,12.0
1981-08-25 13:05:54.460 ,4,0,0.,12.0,0.,12.0,0.,12.0,0.,12.0
1981-08-25 13:06:06.460 ,4,0,0.,12.0,0.,12.0,0.,12.0,0.,12.0
1981-08-25 13:06:18.460 ,4,0,0.,12.0,0.,12.0,0.,12.0,0.,12.0
1981-08-25 13:06:30.460 ,5,0,0.,12.0,0.,12.0,0.,12.0,0.,12.0
1981-08-25 13:06:42.460 ,5,0,0.,12.0,0.,12.0,0.,12.0,0.,12.0
1981-08-25 13:06:54.460 ,5,0,0.,12.0,0.,12.0,0.,12.0,0.,12.0
1981-08-25 13:07:06.460 ,5,0,0.,12.0,0.,12.0,0.,12.0,0.,12.0
1981-08-25 13:07:18.460 ,6,0,0.,12.0,0.,12.0,0.,12.0,0.,12.0
1981-08-25 13:07:30.460 ,6,0,0.,12.0,0.,12.0,0.,12.0,0.,12.0
1981-08-25 13:07:42.460 ,6,0,0.,12.0,0.,12.0,0.,12.0,0.,12.0
1981-08-25 13:07:54.460 ,6,0,0.,12.0,0.,12.0,0.,12.0,0.,12.0
1981-08-25 13:08:06.460 ,7,0,0.,12.0,0.,12.0,0.,12.0,0.,12.0
1981-08-25 13:08:18.460 ,7,0,0.,12.0,0.,12.0,0.,12.0,0.,12.0
1981-08-25 13:08:30.460 ,7,0,0.,12.0,0.,12.0,0.,12.0,0.,12.0
1981-08-25 13:08:42.460 ,7,0,0.,12.0,0.,12.0,0.,12.0,0.,12.0
1981-08-25 13:08:54.460 ,7,0,0.,12.0,0.,12.0,0.,12.0,0.,12.0
1981-08-25 13:09:06.460 ,7,0,0.,12.0,0.,12.0,0.,12.0,0.,12.0
1981-08-25 13:09:18.460 ,7,0,0.,12.0,0.,12.0,0.,12.0,0.,12.0
1981-08-25 13:09:30.460 ,7,0,0.,12.0,0.,12.0,0.,12.0,0.,12.0
1981-08-25 13:09:42.460 ,6,0,0.,12.0,0.,12.0,0.,12.0,0.,12.0
1981-08-25 13:09:54.460 ,6,0,0.,12.0,0.,12.0,0.,12.0,0.,12.0
1981-08-25 13:10:06.460 ,6,0,0.,12.0,0.,12.0,0.,12.0,0.,12.0
1981-08-25 13:10:18.460 ,6,0,0.,12.0,0.,12.0,0.,12.0,0.,12.0
1981-08-25 13:10:30.460 ,5,0,0.,12.0,0.,12.0,0.,12.0,0.,12.0
1981-08-25 13:10:42.460 ,5,0,0.,12.0,0.,12.0,0.,12.0,0.,12.0
1981-08-25 13:10:54.460 ,5,0,0.,12.0,0.,12.0,0.,12.0,0.,12.0
1981-08-25 13:11:06.460 ,5,0,0.,12.0,0.,12.0,0.,12.0,0.,12.0
1981-08-25 13:11:18.460 ,4,0,0.,12.0,0.,12.0,0.,12.0,0.,12.0
1981-08-25 13:11:30.460 ,4,0,0.,12.0,0.,12.0,0.,12.0,0.,12.0
1981-08-25 13:11:42.460 ,4,0,0.,12.0,0.,12.0,0.,12.0,0.,12.0
1981-08-25 13:11:54.460 ,4,0,0.,12.0,0.,12.0,0.,12.0,0.,12.0
1981-08-25 13:12:06.460 ,3,0,0.,12.0,0.,12.0,0.,12.0,0.,12.0
1981-08-25 13:12:18.460 ,3,0,0.,12.0,0.,12.0,0.,12.0,0.,12.0
1981-08-25 13:12:30.460 ,3,0,0.,12.0,0.,12.0,0.,12.0,0.,12.0
1981-08-25 13:12:42.460 ,3,0,0.,12.0,0.,12.0,0.,12.0,0.,12.0
1981-08-25 13:12:54.460 ,2,0,0.,12.0,0.,12.0,0.,12.0,0.,12.0
1981-08-25 13:13:06.460 ,2,0,0.,12.0,0.,12.0,0.,12.0,0.,12.0
1981-08-25 13:13:18.460 ,2,0,0.,12.0,0.,12.0,0.,12.0,0.,12.0
1981-08-25 13:13:30.460 ,2,0,0.,12.0,0.,12.0,0.,12.0,0.,12.0
1981-08-25 13:13:42.460 ,1,0,0.,12.0,0.,12.0,0.,12.0,0.,12.0
1981-08-25 13:13:54.460 ,1,0,0.,12.0,0.,12.0,0.,12.0,0.,12.0
1981-08-25 13:14:06.460 ,1,0,0.,12.0,0.,12.0,0.,12.0,0.,12.0
1981-08-25 13:14:18.460 ,1,0,0.,12.0,0.,12.0,0.,12.0,0.,12.0
1981-08-25 13:14:30.460 ,0,0,0.,12.0,0.,12.0,0.,12.0,0.,12.0
1981-08-25 13:14:42.460 ,0,0,0.,12.0,0.,12.0,0.,12.0,0.,12.0
1981-08-25 13:14:54.460 ,0,0,0.,12.0,0.,12.0,0.,12.0,0.,12.0
1981-08-25 13:15:06.460 ,0,0,0.,12.0,0.,12.0,0.,12.0,0.,12.0
1981-08-25 13:15:18.460 ,0,0,0.,12.0,0.,12.0,0.,12.0,0.,12.0
1981-08-25 13:15:30.460 ,0,0,0.,12.0,0.,12.0,0.,12.0,0.,12.0
1981-08-25 13:15:42.460 ,0,0,0.,12.0,0.,12.0,0.,12.0,0.,12.0
1981-08-25 13:15:54.460 ,0,0,0.,12.0,0.,12.0,0.,12.0,0.,12.0
1981-08-25 13:16:06.460 ,1,0,0.,12.0,0.,12.0,0.,12.0,0.,12.0
1981-08-25 13:16:18.460 ,1,0,0.,12.0,0.,12.0,0.,12.0,0.,12.0
1981-08-25 13:16:30.460 ,1,0,0.,12.0,0.,12.0,0.,12.0,0.,12.0
1981-08-25 13:16:42.460 ,1,0,0.,12.0,0.,12.0,0.,12.0,0.,12.0
1981-08-25 13:16:54.460 ,2,0,0.,12.0,0.,12.0,0.,12.0,0.,12.0
1981-08-25 13:17:06.460 ,2,0,0.,12.0,0.,12.0,0.,12.0,0.,12.0
1981-08-25 13:17:18.460 ,2,0,0.,12.0,0.,12.0,0.,12.0,0.,12.0
1981-08-25 13:17:30.460 ,2,0,0.,12.0,0.,12.0,0.,12.0,0.,12.0